Wind_Speed
15 10 8 9 10 13 15 11 9 8 8 7 7 5 6 6 5 4 5 4 3 2
17 15 12 9 9 9 12 13 11 9 9 10 9 8 7 7 7 5 4 3 3 3
17 15 12 11 10 10 9 11 13 11 12 12 10 9 8 9 7 7 6 6 6 4
19 16 14 14 12 10 8 8 9 10 8 10 13 12 11 10 9 9 8 6 5 8
17 18 16 15 14 14 13 11 11 10 10 9 8 9 10 11 11 10 9 9 9 7
12 13 15 16 17 17 16 14 13 13 13 12 9 11 12 13 12 12 13 11 10 10
7 5 6 8 10 12 13 12 13 15 14 14 13 12 12 16 15 14 14 14 13 12
17 15 8 3 1 2 4 6 9 13 15 15 15 16 15 14 15 16 15 16 15 14
10 11 13 15 14 10 6 6 6 5 8 13 15 17 17 16 16 15 16 17 17 15
7 7 7 8 8 10 11 11 13 13 12 10 8 14 16 17 16 17 17 16 16 16
10 7 4 3 3 6 6 8 11 12 11 11 11 8 5 11 11 13 12 11 12 13
14 12 8 5 1 1 4 3 5 10 10 15 17 17 13 10 7 5 4 4 5 8
13 12 12 9 9 9 8 6 9 16 16 13 15 16 18 16 13 15 14 11 13 14
12 14 14 14 16 15 17 23 19 17 15 15 14 10 12 13 17 15 13 14 13 14
Wind_Direction
213 224 236 218 242 253 235 239 239 238 241 236 239 234 219 223 241 264 276 301 309 354
213 216 226 234 256 258 230 231 240 249 246 240 236 238 236 229 232 248 265 282 286 306
216 217 223 233 251 256 248 241 255 245 253 248 248 251 246 236 243 258 253 265 262 274
224 225 228 241 251 253 259 271 263 247 267 263 246 244 247 245 245 252 262 255 266 263
227 231 237 246 255 261 270 281 279 271 259 249 245 244 248 254 254 255 259 262 272 278
223 225 239 246 254 265 272 278 271 276 271 263 267 254 250 258 260 266 270 268 274 283
144 192 225 243 251 261 264 269 269 268 273 271 269 260 266 261 261 268 275 278 281 282
96 85 93 101 350 249 261 271 270 261 264 264 263 262 264 265 263 270 269 274 282 281
102 88 84 76 74 73 65 37 9 338 290 273 268 264 267 269 266 266 267 272 276 280
114 114 105 93 76 61 54 47 36 21 7 354 309 270 256 251 254 260 264 269 277 282
123 129 118 99 80 53 33 34 37 23 26 28 11 359 319 265 267 270 275 282 283 286
88 87 84 89 98 328 356 22 48 45 63 76 59 56 66 68 62 65 45 1 351 12
82 87 90 96 79 61 75 88 89 105 97 89 67 51 56 59 64 50 24 52 42 33
85 82 87 89 92 93 104 115 104 98 87 82 69 52 48 39 45 39 19 12 21 20
Height
863 865 866 868 870 871 873 875 877 878 879 881 883 884 885 886 887 888 890 890 890 889
861 863 864 867 868 870 871 873 875 876 878 880 880 882 882 884 886 887 888 889 889 889
860 862 864 865 867 869 871 871 872 874 875 877 878 880 881 882 884 885 887 888 888 888
857 860 862 864 866 867 868 870 871 871 872 874 876 878 879 880 882 883 885 885 885 886
854 857 860 862 865 866 866 868 870 870 871 872 873 875 876 878 880 881 882 883 884 884
851 853 856 858 860 863 864 865 867 868 868 870 871 872 874 876 877 879 880 880 880 880
847 850 852 854 856 859 860 862 863 866 866 867 868 870 871 872 874 874 876 877 877 878
846 848 851 852 853 854 856 858 860 861 863 865 866 867 868 869 870 871 871 872 873 874
845 848 852 851 853 854 855 856 858 859 860 861 862 864 865 866 867 868 868 868 869 869
843 849 853 851 852 854 855 855 857 859 860 859 860 859 860 862 863 863 864 865 866 866
847 849 851 850 852 853 854 854 854 858 859 858 860 857 856 857 859 861 862 861 861 861
846 846 849 850 851 851 851 853 854 856 858 858 860 858 856 855 856 858 858 858 859 859
848 849 850 853 851 850 849 849 852 855 856 859 858 862 858 856 856 858 861 857 858 859
850 851 851 851 851 852 854 855 857 857 858 858 860 863 858 860 856 858 863 863 859 858